* Astronomy

Members Login
Username 
 
Password 
    Remember Me  
Post Info TOPIC: Asteroid 2012 AC11


L

Posts: 131433
Date:
Asteroid 2012 AC11
Permalink  
 


Orbital elements:
2012 AC11                                                Earth MOID = 0.2515 AU
Epoch 2012 Mar. 14.0 TT = JDT 2456000.5                 MPC
M  21.80578              (2000.0)            P               Q
n   0.64178768     Peri.  191.25918     -0.68035412     -0.66680348
a   1.3310932      Node   302.48429     +0.69729947     -0.46122187
e   0.0728774      Incl.   21.13296     +0.22559195     -0.58536100
P   1.54           H   21.7           G   0.15           U   8

MPEC 2012 - A62



__________________
Page 1 of 1  sorted by
 
Quick Reply

Please log in to post quick replies.



Create your own FREE Forum
Report Abuse
Powered by ActiveBoard